WetterOnline ( https://www.wetteronline.ch )

Wetter aktuell Regen

Aktuelles Wetter: Zwiesel (613m)

6-stündlich | Neueste Meldungen
Ortszeit Temperatur Wetter
Mi, 08.07. 8:00 10.9° C wolkig
Mi, 08.07. 2:00 7.5° C leicht bewölkt
Di, 07.07. 20:00 16.3° C leicht bewölkt
Di, 07.07. 14:00 16.3° C wolkig
Di, 07.07. 8:00 10.6° C wolkenlos
Di, 07.07. 2:00 8.6° C wolkenlos
Mo, 06.07. 20:00 16.0° C leicht bewölkt
Mo, 06.07. 14:00 14.8° C leichter Regen
Ortszeit Temperatur Wetter
Mi, 08.07. 11:30 18.3° C bedeckt
Mi, 08.07. 11:20 18.3° C bedeckt
Mi, 08.07. 11:10 17.9° C bedeckt
Mi, 08.07. 11:00 17.2° C bedeckt
Mi, 08.07. 10:50 17.2° C bedeckt
Mi, 08.07. 10:40 17.9° C bedeckt
Mi, 08.07. 10:30 17.5° C bedeckt
Mi, 08.07. 10:00 16.7° C bedeckt
Mi, 08.07. 9:30 15.3° C bewölkt
Mi, 08.07. 9:00 13.1° C bewölkt
Mi, 08.07. 8:30 11.6° C wolkig
Ortszeit Relative Feuchte Sichtweite
Mi, 08.07. 8:00 83% 50 km
Mi, 08.07. 2:00 93% 60 km
Di, 07.07. 20:00 50% 50 km
Di, 07.07. 14:00 50% 55 km
Di, 07.07. 8:00 70% >70 km
Di, 07.07. 2:00 79% 50 km
Mo, 06.07. 20:00 48% 50 km
Mo, 06.07. 14:00 78% 45 km
Ortszeit Relative Feuchte Sichtweite
Mi, 08.07. 11:30 49% 60 km
Mi, 08.07. 11:20 49% -
Mi, 08.07. 11:10 49% -
Mi, 08.07. 11:00 51% 60 km
Mi, 08.07. 10:50 51% -
Mi, 08.07. 10:40 50% -
Mi, 08.07. 10:30 55% 50 km
Mi, 08.07. 10:00 56% 55 km
Mi, 08.07. 9:30 57% 55 km
Mi, 08.07. 9:00 71% >70 km
Mi, 08.07. 8:30 84% 50 km
Ortszeit Niederschlagsmenge Niederschlagsart
Mi, 08.07. 8:00 0.0 l/m2 in 12 Std. -
Mi, 08.07. 2:00 0.0 l/m2 in 6 Std. -
Di, 07.07. 20:00 0.0 l/m2 in 12 Std. -
Di, 07.07. 14:00 0.0 l/m2 in 6 Std. -
Di, 07.07. 8:00 0.0 l/m2 in 12 Std. -
Di, 07.07. 2:00 0.0 l/m2 in 6 Std. -
Mo, 06.07. 20:00 1 l/m2 in 12 Std. Regen
Mo, 06.07. 14:00 1 l/m2 in 6 Std. Regen
Ortszeit Niederschlagsmenge Niederschlagsart
Mi, 08.07. 11:30 0.0 l/m2 in 1 Std. -
Mi, 08.07. 11:20 keine Meldung -
Mi, 08.07. 11:10 keine Meldung -
Mi, 08.07. 11:00 0.0 l/m2 in 1 Std. -
Mi, 08.07. 10:50 keine Meldung -
Mi, 08.07. 10:40 keine Meldung -
Mi, 08.07. 10:30 0.0 l/m2 in 1 Std. -
Mi, 08.07. 10:00 0.0 l/m2 in 1 Std. -
Mi, 08.07. 9:30 0.0 l/m2 in 1 Std. -
Mi, 08.07. 9:00 0.0 l/m2 in 1 Std. -
Mi, 08.07. 8:30 0.0 l/m2 in 1 Std. -
Ortszeit Stärke Spitze Richtung
km/h Bft. km/h Grad Sektor
Mi, 08.07. 8:00 0 0 7 - -
Mi, 08.07. 2:00 2 1 9 10° N
Di, 07.07. 20:00 7 2 25 300° NW
Di, 07.07. 14:00 14 3 29 240° SW
Di, 07.07. 8:00 4 1 11 170° S
Di, 07.07. 2:00 7 2 29 100° O
Mo, 06.07. 20:00 18 3 47 290° W
Mo, 06.07. 14:00 7 2 40 230° SW
Ortszeit Stärke Spitze Richtung
km/h Bft. km/h Grad Sektor
Mi, 08.07. 11:30 17 3 31 220° SW
Mi, 08.07. 11:20 17 3 - 220° SW
Mi, 08.07. 11:10 18 3 - 240° SW
Mi, 08.07. 11:00 17 3 28 240° SW
Mi, 08.07. 10:50 17 3 - 240° SW
Mi, 08.07. 10:40 7 2 - 240° SW
Mi, 08.07. 10:30 4 1 11 160° S
Mi, 08.07. 10:00 4 1 7 270° W
Mi, 08.07. 9:30 0 0 4 - -
Mi, 08.07. 9:00 4 1 7 290° W
Mi, 08.07. 8:30 0 0 4 - -
Ortszeit Untergrenze Bedeckung Gattung
total tief tief mittel hoch
Mi, 08.07. 8:00 2700 m 7/8 2/8 - - -
Mi, 08.07. 2:00 1800 m 2/8 2/8 - - -
Di, 07.07. 20:00 1800 m 4/8 4/8 - - -
Di, 07.07. 14:00 1500 m 5/8 5/8 - - -
Di, 07.07. 8:00 - 0/8 0/8 - - -
Di, 07.07. 2:00 - 0/8 0/8 - - -
Mo, 06.07. 20:00 1500 m 2/8 2/8 - - -
Mo, 06.07. 14:00 150 m 7/8 7/8 - - -
Ortszeit Bedeckungsgrad in Achtel und Wolkenuntergrenze
Mi, 08.07. 11:30 8(1800m) 8(6600m) 7(6300m)
Mi, 08.07. 11:20 8(1800m) 8(6600m)
Mi, 08.07. 11:10 8(1800m) 8(6600m)
Mi, 08.07. 11:00 1(1380m) 8(1800m)
Mi, 08.07. 10:50 1(1380m) 8(1800m)
Mi, 08.07. 10:40 2(1380m) 8(1800m)
Mi, 08.07. 10:30 8(1800m)
Mi, 08.07. 10:00 8(1800m)
Mi, 08.07. 9:30 7(1800m) 8(5400m) 8(6000m)
Mi, 08.07. 9:00 4(1800m) 7(5700m) 8(6900m)
Mi, 08.07. 8:30 3(2100m) 6(6300m) 7(6900m)
Ortszeit Luftdruck NN (hPa) Tendenz (hPa in 3 Std.)
Mi, 08.07. 8:00 1019 0,0
Mi, 08.07. 2:00 1021 - 0,1
Di, 07.07. 20:00 1018 - 0,9
Di, 07.07. 14:00 1020 - 0,7
Di, 07.07. 8:00 1022 + 0,7
Di, 07.07. 2:00 1022 + 1,5
Mo, 06.07. 20:00 1016 + 1,9
Mo, 06.07. 14:00 1015 + 0,9
Ortszeit Luftdruck NN (hPa) Tendenz (hPa in 3 Std.)
Mi, 08.07. 11:30 1016 - 0,5
Mi, 08.07. 11:20 1016 keine Meldung
Mi, 08.07. 11:10 1016 keine Meldung
Mi, 08.07. 11:00 1016 - 0,5
Mi, 08.07. 10:50 1016 keine Meldung
Mi, 08.07. 10:40 1016 keine Meldung
Mi, 08.07. 10:30 1016 - 0,3
Mi, 08.07. 10:00 1017 - 0,1
Mi, 08.07. 9:30 1017 - 0,2
Mi, 08.07. 9:00 1018 - 0,3
Mi, 08.07. 8:30 1018 0,0
Ortszeit Schneehöhe (cm)
Mi, 08.07. 8:00 -
Mi, 08.07. 2:00 -
Di, 07.07. 20:00 -
Di, 07.07. 14:00 -
Di, 07.07. 8:00 -
Di, 07.07. 2:00 -
Mo, 06.07. 20:00 -
Mo, 06.07. 14:00 -
Ortszeit Schneehöhe (cm)
Mi, 08.07. 11:30 -
Mi, 08.07. 11:20 -
Mi, 08.07. 11:10 -
Mi, 08.07. 11:00 -
Mi, 08.07. 10:50 -
Mi, 08.07. 10:40 -
Mi, 08.07. 10:30 -
Mi, 08.07. 10:00 -
Mi, 08.07. 9:30 -
Mi, 08.07. 9:00 -
Mi, 08.07. 8:30 -
Link zu dieser Seite / Seite empfehlen

Das Wetter in ...